Location: ???? ???
(30.5005°N, 60.5936°E)
Time: 13:31:55
(UTC+00:00)

Cosmos 1346 Rocket - Pass Details

Date: 07 June 2020
Orbit: 531 x 548 km, 81.2° (Epoch: 06 July)

Event Time Altitude Azimuth Distance (km) Brightness Sun altitude
Exits shadow 00:24:48 - 209° (SSW) 2,261 5.4 -6.5°
Reaches altitude 10° 00:26:00 10° 215° (SW) 1,806 4.9 -6.3°
Maximum altitude 00:29:37 33° 281° (W) 917 3.6 -5.6°
Drops below altitude 10° 00:33:15 10° 347° (NNW) 1,808 5.7 -4.9°
Sets 00:35:34 0° 357° (N) 2,700 6.7 -4.5°
